Volver al catálogo

BREEZE-M DEB

LostHEO
NORAD 39996·DEBRIS·🇷🇺 Russia

Lanzado Mar 14, 2008 desde Baikonur Cosmodrome

Loading…

Próximos Pases (próximas 24 horas)

TLE

ObsoletoSource: Space-Track

Época: Oct 29, 2013, 03:18 UTC

1 39996U 08011DV  13302.13786541 -.00000029  00000-0  00000+0 0  9991
2 39996  47.2725 261.1797 5843379 188.4543 154.2544  2.93548538872065

Sigue BREEZE-M DEB en tiempo real con AllMySat

Download on the App Store